Greensboro, NC

1:04 PM EDT on April 26, 2017 (GMT -0400)
Piedmont Triad International

Weather History for KGSO - October, 2013

Change the Weather History Date:

Thursday, October 24, 2013

  Actual Average Record
Temperature  
Mean Temperature 46 °F 57 °F  
Max Temperature 57 °F 68 °F 84 °F (2001)
Min Temperature 34 °F 46 °F 28 °F (1969)
Degree Days  
Heating Degree Days 19 9  
Month to date heating degree days 93 136  
Since 1 July heating degree days 109 167  
Cooling Degree Days 0 1  
Month to date cooling degree days 49 33  
Year to date cooling degree days 1380 1480  
Moisture  
Dew Point 30 °F    
Average Humidity 59    
Maximum Humidity 82    
Minimum Humidity 35    
Precipitation  
Precipitation 0.00 in 0.10 in 1.13 in (1914)
Month to date precipitation 1.11 2.41  
Year to date precipitation 41.63 35.39  
Sea Level Pressure  
Sea Level Pressure 30.11 in    
Wind  
Wind Speed 7 mph (WNW)    
Max Wind Speed 18 mph    
Max Gust Speed 24 mph    
Visibility 10 miles    
Events      
T = Trace of Precipitation, MM = Missing Value Source: NWS Daily Summary

Daily Weather History Graph

Daily Weather History Graph

Search for Another Location

Airport or City:

Trip Planner

Search our weather history database for the weather conditions in past years. The results will help you decide how hot, cold, wet, or windy it might be!

Date:

Astronomy

Oct. 24, 2013 Rise Set
Actual Time 7:34 AM EDT 6:32 PM EDT
Civil Twilight 7:08 AM EDT 6:58 PM EDT
Nautical Twilight 6:38 AM EDT 7:28 PM EDT
Astronomical Twilight 6:08 AM EDT 7:58 PM EDT
Moon 10:58 PM EDT (10/24) 12:30 PM EDT (10/24)
Length of Visible Light 11h 49m
Length of Day
10h 57m
Waning Gibbous, 71% of the Moon is Illuminated
Oct 24
Waning Gibbous
Oct 26
Last Quarter
Nov 3
New
Nov 10
First Quarter
Nov 17
Full

Hourly Weather History & Observations

Time (EDT) Temp. Windchill Dew Point Humidity Pressure Visibility Wind Dir Wind Speed Gust Speed Precip Events Conditions
12:54 AM 42.1 °F 36.6 °F 28.9 °F 60% 30.02 in 10.0 mi NW 9.2 mph - N/A   Clear
1:54 AM 39.9 °F 35.8 °F 28.9 °F 65% 30.04 in 10.0 mi NW 5.8 mph - N/A   Clear
2:54 AM 37.0 °F 32.4 °F 28.9 °F 73% 30.05 in 10.0 mi West 5.8 mph - N/A   Clear
3:54 AM 36.0 °F 33.3 °F 28.9 °F 76% 30.06 in 10.0 mi SW 3.5 mph - N/A   Clear
4:54 AM 35.1 °F 30.1 °F 28.9 °F 78% 30.07 in 10.0 mi WSW 5.8 mph - N/A   Clear
5:54 AM 35.1 °F 31.0 °F 28.9 °F 78% 30.09 in 10.0 mi WSW 4.6 mph - N/A   Clear
6:54 AM 34.0 °F 28.8 °F 28.9 °F 82% 30.11 in 10.0 mi West 5.8 mph - N/A   Clear
7:54 AM 35.1 °F 29.3 °F 28.9 °F 78% 30.12 in 10.0 mi West 6.9 mph - N/A   Clear
8:54 AM 41.0 °F 36.4 °F 30.9 °F 67% 30.14 in 10.0 mi WSW 6.9 mph - N/A   Clear
9:54 AM 46.0 °F 41.4 °F 30.0 °F 54% 30.14 in 10.0 mi West 9.2 mph - N/A   Partly Cloudy
10:54 AM 48.9 °F - 28.0 °F 44% 30.14 in 10.0 mi West 10.4 mph - N/A   Partly Cloudy
11:54 AM 51.1 °F - 28.0 °F 41% 30.13 in 10.0 mi West 11.5 mph - N/A   Scattered Clouds
12:54 PM 55.0 °F - 30.0 °F 38% 30.12 in 10.0 mi NW 11.5 mph 20.7 mph N/A   Scattered Clouds
1:54 PM 55.9 °F - 28.9 °F 36% 30.09 in 10.0 mi NW 15.0 mph 20.7 mph N/A   Mostly Cloudy
2:54 PM 55.9 °F - 30.0 °F 37% 30.08 in 10.0 mi West 13.8 mph 20.7 mph N/A   Mostly Cloudy
3:54 PM 55.9 °F - 30.0 °F 37% 30.08 in 10.0 mi WNW 16.1 mph 24.2 mph N/A   Mostly Cloudy
4:54 PM 53.1 °F - 30.0 °F 41% 30.08 in 10.0 mi WNW 9.2 mph - N/A   Mostly Cloudy
5:54 PM 54.0 °F - 30.0 °F 40% 30.09 in 10.0 mi NW 8.1 mph - N/A   Mostly Cloudy
6:54 PM 50.0 °F - 28.9 °F 44% 30.12 in 10.0 mi NNW 3.5 mph - N/A   Partly Cloudy
7:54 PM 48.0 °F - 30.0 °F 50% 30.14 in 10.0 mi North 4.6 mph - N/A   Partly Cloudy
8:54 PM 48.0 °F - 30.9 °F 52% 30.15 in 10.0 mi North 3.5 mph - N/A   Mostly Cloudy
9:54 PM 46.9 °F - 30.9 °F 54% 30.17 in 10.0 mi NNE 3.5 mph - N/A   Mostly Cloudy
10:54 PM 46.0 °F 43.1 °F 30.9 °F 56% 30.17 in 10.0 mi NE 5.8 mph - N/A   Mostly Cloudy
11:54 PM 44.1 °F 42.5 °F 30.9 °F 60% 30.18 in 10.0 mi NNE 3.5 mph - N/A   Overcast